Regional Weather Roundup
Issued by NWS

Home | Current Version | Previous Version | Graphics & Text | Print | Product List | Glossary Off
Versions: 1 2 3 4 5 6 7 8 9 10 11 12 13 14 15 16 17 18 19 20 21 22 23 24 25 26 27 28 29 30 31 32 33 34 35 36 37 38 39 40 41 42 43 44 45 46 47 48 49 50

000
ASUS43 KMPX 250201
RWRMN
WEATHER ROUNDUP FOR MINNESOTA
NATIONAL WEATHER SERVICE TWIN CITIES/CHANHASSEN MN
800 PM CST WED DEC 24 2014


NOTE: "FAIR" INDICATES FEW OR NO CLOUDS BELOW 12,000 FEET WITH NO
SIGNIFICANT WEATHER AND/OR OBSTRUCTIONS TO VISIBILITY. N/A MEANS
CURRENT SKY AND/OR WEATHER CONDITIONS ARE NOT AVAILABLE.

MNZ060>063-068>070-250300-
   Twin Cities Metro

CITY           SKY/WX    TMP DP  RH WIND       PRES   REMARKS
TWIN CITIES    CLOUDY    33  28  81 SW7       29.61S WCI  27
ST PAUL        CLOUDY    34  30  85 SW9       29.62S WCI  27
CRYSTAL        CLOUDY    34  29  82 W8        29.59F WCI  27
BLAINE         CLOUDY    36  34  93 W7        29.60S
LAKEVILLE      CLOUDY    30  28  93 W9        29.61S WCI  22
EDEN PRAIRIE   CLOUDY    33  29  85 SW6       29.60F WCI  28
SOUTH ST PAUL  CLOUDY    34  31  88 W7        29.61S WCI  28
LAKE ELMO      CLOUDY    34  32  93 W7        29.61S WCI  28
$$
MNZ001>005-007-008-013>017-022>024-027-028-250300-
   Northwest Minnesota

CITY           SKY/WX    TMP DP  RH WIND       PRES   REMARKS
BEMIDJI        CLOUDY    29  27  90 S6        29.47F WCI  23
HALLOCK        CLOUDY    28  27  93 S15       29.43F FOG     WCI  17
ROSEAU         CLOUDY    28  25  86 S9        29.43F WCI  20
WARROAD        CLOUDY    28  25  86 S6        29.45F WCI  22
THIEF RVR FALL CLOUDY    27  25  93 S14       29.47S WCI  15
CROOKSTON      CLOUDY    27  27 100 S16       29.47F FOG     WCI  14
FOSSTON        CLOUDY    25  25 100 S14       29.47F WCI  13
DETROIT LAKES  CLOUDY    28  28 100 S9        29.51S WCI  20
MOORHEAD       CLOUDY    28  28 100 S14       29.51F WCI  17
PARK RAPIDS    CLOUDY    29  26  89 SW8       29.50F WCI  21
MAHNOMEN       CLOUDY    26  25  95 S14       29.48F WCI  15
$$
MNZ006-009>011-018-025>026-250300-
   North Central Minnesota

CITY           SKY/WX    TMP DP  RH WIND       PRES   REMARKS
BAUDETTE       CLOUDY    29  25  85 S12       29.45F WCI  19
FLAG ISLAND    CLOUDY    28  27  93 S12       29.43F WCI  18
INTL FALLS     LGT SNOW  31  29  92 SW3       29.47F FOG
WASKISH        CLOUDY    30  28  93 CALM      29.47F
BIG FORK       LGT SNOW  32  30  93 S3        29.48F
LONGVILLE      CLOUDY    30  28  93 SW9       29.50F WCI  22
GRAND RAPIDS   CLOUDY    30  28  93 S6        29.49F WCI  24
CRANE LAKE     MIX PCPN  30  30 100 CALM      29.50F
ORR            CLOUDY    30  28  93 CALM      29.46F
COOK           CLOUDY    30  30 100 SW3       29.49F
WALKER         CLOUDY    29  26  89 SW9       29.50F WCI  21
$$
MNZ012-019>021-037-250300-
   Northeast Minnesota

CITY           SKY/WX    TMP DP  RH WIND       PRES   REMARKS
DULUTH         CLOUDY    31  28  89 W9        29.50F WCI  23
ELY            LGT SNOW  30  30 100 SW3       29.48F
HIBBING        CLOUDY    33  30  88 CALM      29.49F
EVELETH        MIX PCPN  32  32 100 SW3       29.51F
DULUTH HARBOR  CLOUDY    34  30  86 CALM      29.55S
TWO HARBORS    CLOUDY    36  30  80 W3        29.50S
SILVER BAY     CLOUDY    32  30  93 CALM      29.49F
GRAND MARAIS     N/A     33  29  85 CALM      29.51F
G MARAIS ARPRT MOCLDY    27  25  93 CALM      29.46F
$$
MNZ029>031-032-039>041-046>048-054>057-064-250300-
   West Central Minnesota

CITY           SKY/WX    TMP DP  RH WIND       PRES   REMARKS
FERGUS FALLS   CLOUDY    28  27  93 S10       29.57S WCI  19
WHEATON        CLOUDY    27  25  93 S9        29.57S WCI  17
MORRIS         MOCLDY    28  27  93 S13       29.55F WCI  18
ALEXANDRIA     CLOUDY    28  26  92 S14       29.55F WCI  17
ELBOW LAKE     CLOUDY    27  26  96 S13       29.54F WCI  17
WADENA         CLOUDY    27  27 100 SW7       29.52F WCI  19
GLENWOOD       CLOUDY    28  27  93 S13       29.57F WCI  18
APPLETON       CLOUDY    28  27  93 S10       29.58F WCI  19
BENSON         CLOUDY    28  27  93 SW7       29.58F WCI  21
ORTONVILLE     CLOUDY    28  25  86 S5        29.57S WCI  23
MADISON          N/A     32  28  86 S8        29.57F WCI  25
WILLMAR        CLOUDY    30  28  93 SW9       29.60S WCI  22
$$
MNZ033>034-036-042>043-049>051-058-059-250300-
   Central Minnesota

CITY           SKY/WX    TMP DP  RH WIND       PRES   REMARKS
ST CLOUD       CLOUDY    34  28  79 SW7       29.58F WCI  28
SAUK CENTRE    CLOUDY    28  27  95 S9        29.57F WCI  20
PAYNESVILLE    CLOUDY    28  27  96 S6        29.59S WCI  21
AITKIN         CLOUDY    36  28  75 S6        29.51F
PINE RIVER     CLOUDY    30  28  93 SW6       29.56S WCI  24
BRAINERD       CLOUDY    31  28  89 SW9       29.54F WCI  23
STAPLES        CLOUDY    28  27  93 SW7       29.54S WCI  21
LONG PRAIRIE   CLOUDY    28  28 100 W9        29.56F WCI  20
LITTLE FALLS   CLOUDY    32  28  86 SW9       29.57F WCI  24
LITCHFIELD     CLOUDY    30  30 100 SW5       29.60S WCI  25
BUFFALO        CLOUDY    32  28  86 SW7       29.61F WCI  26
MAPLE LAKE     CLOUDY    32  30  92 SW5       29.60F WCI  28
$$
MNZ037-044-045-052-053-250300-
   East Central Minnesota

CITY           SKY/WX    TMP DP  RH WIND       PRES   REMARKS
PRINCETON      CLOUDY    34  30  86 SW5       29.58F WCI  30
MORA           CLOUDY    32  28  86 SW5       29.58F WCI  27
CAMBRIDGE      CLOUDY    36  27  69 SW5       29.56F
RUSH CITY      CLOUDY    33  29  86 SW5       29.57F WCI  28
MOOSE LAKE     CLOUDY    32  30  93 SW8       29.52F WCI  25
HINCKLEY       CLOUDY    32  32 100 W7        29.56F WCI  26
CLOQUET        CLOUDY    32  30  93 W7        29.52F WCI  26
MCGREGOR       CLOUDY    32  32 100 SW5       29.53F WCI  27
$$
MNZ071>073-080-081-089-090-097-098-250300-
   Southwest Minnesota

CITY           SKY/WX    TMP DP  RH WIND       PRES   REMARKS
MONTEVIDEO     CLOUDY    28  28 100 SW8       29.60F WCI  20
GRANITE FALLS  CLOUDY    29  26  92 S10       29.61F WCI  19
CANBY          CLOUDY    28  25  91 SW7       29.59F WCI  20
MARSHALL       CLOUDY    27  23  86 SW9       29.60F WCI  17
REDWOOD FALLS  CLOUDY    30  27  88 SW14      29.62S WCI  19
OLIVIA         CLOUDY    30  28  93 SW9       29.60S WCI  22
PIPESTONE      CLOUDY    25  25 100 SW8       29.59F FOG     WCI  16
WINDOM         CLOUDY    27  27 100 SW13      29.62S WCI  16
WORTHINGTON    CLOUDY    25 -20  13 SW15      29.64R WCI  12
JACKSON        CLOUDY    28  28 100 SW13      29.64R WCI  18
TRACY          CLOUDY    28  27  95 SW14      29.61F WCI  17
SLAYTON        CLOUDY    25  25  98 SW14      29.62S FOG     WCI  14
$$
MNZ065>067-074>077-082>085-091>093-250300-
   South Central Minnesota

CITY           SKY/WX    TMP DP  RH WIND       PRES   REMARKS
MANKATO        CLOUDY    30  27  86 W12       29.63F WCI  21
NEW ULM        CLOUDY    30  28  93 SW7       29.61F WCI  23
FAIRMONT       CLOUDY    30  25  80 SW12      29.64S WCI  21
GLENCOE        CLOUDY    32  31  95 SW5       29.60F WCI  27
FARIBAULT      CLOUDY    32  30  93 W5        29.63R WCI  27
OWATONNA       CLOUDY    32  28  86 W7        29.62F WCI  26
ALBERT LEA     CLOUDY    30  30 100 SW8       29.63F WCI  23
$$
MNZ078>079-086>088-094>096-250300-
   Southeast Minnesota

CITY           SKY/WX    TMP DP  RH WIND       PRES   REMARKS
ROCHESTER      CLOUDY    31  29  92 W14       29.62S WCI  21
RED WING       CLOUDY    34  30  86 W5        29.61R WCI  30
STANTON        CLOUDY    33  30  88 W8        29.61S WCI  26
DODGE CENTER   CLOUDY    32  30  93 W10       29.61S WCI  24
WINONA         CLOUDY    36  32  87 NW6       29.62S
AUSTIN         CLOUDY    30  28  93 W8        29.63S WCI  23
PRESTON        CLOUDY    32  29  88 NW6       29.62S WCI  26
$$
ABBREVIATIONS USED IN REMARKS
   TC - TEMPERATURES IN CELSIUS
  WCI - WIND CHILL INDEX
   HX - HEAT INDEX
  VSB - VISIBILITY
$$



USA.gov is the U.S. government's official web portal to all federal, state and local government web resources and services.